CDT,Max TemperatureF,Mean TemperatureF,Min TemperatureF,Max Dew PointF,MeanDew PointF,Min DewpointF,Max Humidity, Mean Humidity, Min Humidity, Max Sea Level PressureIn, Mean Sea Level PressureIn, Min Sea Level PressureIn, Max VisibilityMiles, Mean VisibilityMiles, Min VisibilityMiles, Max Wind SpeedMPH, Mean Wind SpeedMPH, Max Gust SpeedMPH,PrecipitationIn, CloudCover, Events, WindDirDegrees
2012-9-1,82,62,43,54,48,40,93,62,28,30.23,30.16,30.08,10,10,10,9,2,16,0.00,0,,94
2012-9-2,86,65,46,65,57,45,96,68,43,30.09,29.98,29.87,10,10,10,13,3,18,0.00,0,,173
2012-9-3,90,72,54,68,61,46,90,68,23,29.93,29.89,29.87,10,10,10,6,3,,0.00,2,Thunderstorm,198
2012-9-4,90,69,50,65,57,47,97,71,33,29.91,29.83,29.73,10,10,8,13,2,20,0.00,0,,181
2012-9-5,75,62,46,61,55,45,97,80,40,29.89,29.84,29.76,10,7,1,7,2,16,0.62,4,Rain-Thunderstorm,298
2012-9-6,78,60,42,57,48,40,93,72,34,29.98,29.93,29.90,10,9,1,8,1,,0.11,2,Rain,270
2012-9-7,64,56,50,55,52,46,100,85,54,29.99,29.95,29.92,10,8,1,6,1,,0.23,7,Rain,312
2012-9-8,64,51,39,54,47,39,100,86,54,30.01,29.91,29.80,10,6,0,8,2,23,0.22,5,Fog-Rain,220
2012-9-9,69,56,42,50,45,41,100,84,40,30.19,30.10,30.02,10,7,0,7,1,,0.00,3,Fog,340
2012-9-10,77,57,37,50,46,36,96,62,36,30.14,30.01,29.87,10,10,10,15,4,28,0.00,0,,187
2012-9-11,84,71,60,58,52,48,69,50,35,29.87,29.81,29.73,10,10,10,12,9,26,0.00,0,,181
2012-9-12,75,62,48,53,48,38,90,71,38,30.24,30.09,29.81,10,10,8,8,4,16,0.03,4,Rain,204
2012-9-13,69,57,46,47,40,29,97,66,23,30.33,30.29,30.23,10,10,8,9,2,,0.00,0,,230
2012-9-14,69,51,36,44,40,33,93,65,34,30.38,30.34,30.31,10,10,10,6,1,,0.00,1,,50
2012-9-15,75,56,39,51,45,36,93,66,40,30.32,30.14,29.96,10,10,10,12,3,18,0.00,0,,173
2012-9-16,75,66,57,54,48,41,67,52,37,29.96,29.91,29.86,10,10,10,8,5,,0.00,0,,220
2012-9-17,60,48,33,48,40,30,92,68,39,30.01,29.95,29.89,10,10,9,7,2,,0.00,5,Rain,340
2012-9-18,57,42,28,36,27,21,100,70,27,30.03,29.99,29.94,10,9,2,8,1,,0.00,1,,325
2012-9-19,66,54,41,50,41,28,93,69,45,29.92,29.72,29.61,10,9,1,10,5,29,0.48,5,Rain-Thunderstorm,189
2012-9-20,59,49,41,43,40,33,93,68,39,29.88,29.82,29.73,10,10,8,12,5,21,0.03,7,Rain,288
2012-9-21,57,46,35,43,39,33,100,81,40,29.86,29.81,29.78,10,9,3,7,3,,0.49,6,Rain,324
2012-9-22,52,42,33,40,35,31,96,80,48,30.22,30.03,29.79,10,9,4,10,3,18,0.20,7,Rain-Snow,350
2012-9-23,55,42,28,34,29,25,92,69,34,30.29,30.24,30.15,10,10,8,7,1,,0.00,2,,250
2012-9-24,71,50,28,41,33,25,88,56,26,30.13,29.88,29.70,10,10,10,13,3,26,0.00,2,,246
2012-9-25,61,48,33,42,35,30,93,68,35,30.02,29.92,29.83,10,10,10,6,3,,0.00,0,,29
2012-9-26,59,42,28,40,31,25,92,72,37,30.27,30.16,30.02,10,10,10,5,1,,0.00,2,,-1
2012-9-27,64,45,27,39,31,23,92,66,30,30.35,30.28,30.22,10,10,10,5,1,,0.00,0,,202
2012-9-28,71,49,28,43,35,26,92,68,29,30.26,30.20,30.12,10,10,10,6,1,,0.00,0,,238
2012-9-29,75,52,32,43,37,29,93,66,30,30.16,30.12,30.08,10,10,10,9,1,,0.00,0,,50
2012-9-30,72,50,28,44,37,27,92,67,30,30.10,30.02,29.91,10,10,10,6,1,,0.00,0,,115